Weather History for China Lake, CA

Change the Weather History Date:

Thursday, October 20, 2011

  Actual Average Record
Temperature  
Mean Temperature 66 °F -  
Max Temperature 87 °F 76 °F 93 °F (2003)
Min Temperature 46 °F 49 °F 44 °F (1999)
Cooling Degree Days 2    
Growing Degree Days 16 (Base 50)    
Moisture  
Dew Point 30 °F    
Average Humidity 29    
Maximum Humidity 57    
Minimum Humidity 9    
Precipitation  
Precipitation 0.00 in - - ()
Sea Level Pressure  
Sea Level Pressure 29.94 in    
Wind  
Wind Speed 4 mph (SSW)    
Max Wind Speed 10 mph    
Max Gust Speed -    
Visibility 10 miles    
Events      
Averages and records for this station are not official NWS values.
T = Trace of Precipitation, MM = Missing Value Source: NWS Daily Summary

Daily Weather History Graph

Daily Weather History Graph

Search for Another Location

Airport:

Trip Planner

Search our weather history database for the weather conditions in past years. The results will help you decide how hot, cold, wet, or windy it might be!

Date:

Astronomy

Oct. 20, 2011 Rise Set
Actual Time 7:01 AM PDT 6:09 PM PDT
Civil Twilight 6:35 AM PDT 6:34 PM PDT
Nautical Twilight 6:05 AM PDT 7:04 PM PDT
Astronomical Twilight 5:36 AM PDT 7:34 PM PDT
Moon 12:05 AM PDT (10/20) 2:08 PM PDT (10/20)
Length of Visible Light 11h 59m
Length of Day
11h 07m
Last Quarter, 43% of the Moon is Illuminated
Oct 20
Last Quarter
Oct 26
New
Nov 2
First Quarter
Nov 10
Full
Nov 18
Last Quarter

Hourly Weather History & Observations

Time (PDT) Temp. Dew Point Humidity Pressure Visibility Wind Dir Wind Speed Gust Speed Precip Events Conditions
12:56 AM 60.1 °F 39.0 °F 46% 29.91 in 10.0 mi South 6.9 mph - N/A   Clear
1:56 AM 59.0 °F 41.0 °F 51% 29.91 in 10.0 mi SSW 4.6 mph - N/A   Clear
2:56 AM 54.0 °F 37.9 °F 55% 29.91 in 10.0 mi Calm Calm - N/A   Clear
3:56 AM 54.0 °F 36.0 °F 51% 29.91 in 10.0 mi SW 4.6 mph - N/A   Clear
4:56 AM 53.1 °F 37.9 °F 57% 29.92 in 10.0 mi South 8.1 mph - N/A   Clear
5:56 AM 52.0 °F 36.0 °F 54% 29.94 in 10.0 mi Calm Calm - N/A   Clear
6:56 AM 46.0 °F 28.9 °F 51% 29.96 in 10.0 mi Calm Calm - N/A   Clear
7:56 AM 53.1 °F 34.0 °F 48% 29.98 in 10.0 mi South 3.5 mph - N/A   Clear
8:56 AM 63.0 °F 33.1 °F 33% 29.99 in 10.0 mi Calm Calm - N/A   Clear
9:56 AM 70.0 °F 35.1 °F 28% 30.00 in 10.0 mi Calm Calm - N/A   Clear
10:56 AM 75.9 °F 35.1 °F 23% 29.98 in 10.0 mi Calm Calm - N/A   Clear
11:56 AM 81.0 °F 28.9 °F 15% 29.97 in 10.0 mi Calm Calm - N/A   Clear
12:56 PM 84.0 °F 28.0 °F 13% 29.94 in 10.0 mi Calm Calm - N/A   Clear
1:56 PM 84.9 °F 25.0 °F 11% 29.91 in 10.0 mi Variable 3.5 mph - N/A   Clear
2:56 PM 86.0 °F 24.1 °F 10% 29.91 in 10.0 mi Calm Calm - N/A   Clear
3:56 PM 87.1 °F 21.0 °F 9% 29.89 in 10.0 mi South 3.5 mph - N/A   Clear
4:56 PM 86.0 °F 23.0 °F 10% 29.88 in 10.0 mi Calm Calm - N/A   Clear
5:56 PM 84.0 °F 23.0 °F 11% 29.90 in 10.0 mi Calm Calm - N/A   Clear
6:56 PM 78.1 °F 21.9 °F 12% 29.92 in 10.0 mi Calm Calm - N/A   Clear
7:56 PM 71.1 °F 24.1 °F 17% 29.94 in 10.0 mi SSW 9.2 mph - N/A   Clear
8:56 PM 69.1 °F 24.1 °F 18% 29.94 in 10.0 mi South 9.2 mph - N/A   Clear
9:56 PM 64.9 °F 25.0 °F 22% 29.96 in 10.0 mi South 9.2 mph - N/A   Clear
10:56 PM 64.0 °F 26.1 °F 24% 29.96 in 10.0 mi SSW 10.4 mph - N/A   Clear
11:56 PM 55.0 °F 24.1 °F 30% 29.98 in 10.0 mi WSW 4.6 mph - N/A   Clear